| time (UTC) | temp F | wind direction | speed knots | gust knots | rain 1hr in | rain 24hr in | rain mn in | humidity % | barometer mb |
| 20260507034041 | 33 | 0.0 | 0.0 | 0.00 | 0.00 | 0.00 | 74 | 1014.0 | |
| 20260507033519 | 33 | 0.0 | 0.0 | 0.00 | 0.00 | 0.00 | 74 | 1014.0 | |
| 20260507033016 | 33 | 0.0 | 0.0 | 0.00 | 0.00 | 0.00 | 71 | 1014.0 | |
| 20260507032534 | 33 | 0.0 | 0.0 | 0.00 | 0.00 | 0.00 | 72 | 1013.9 | |
| 20260507032032 | 33 | 0.0 | 0.0 | 0.00 | 0.00 | 0.00 | 72 | 1014.1 | |
| 20260507031531 | 34 | 0.0 | 0.0 | 0.00 | 0.00 | 0.00 | 72 | 1014.2 | |
| 20260507031029 | 34 | 0.0 | 0.0 | 0.00 | 0.00 | 0.00 | 72 | 1014.2 | |
| 20260507030527 | 34 | 0.0 | 0.0 | 0.00 | 0.00 | 0.00 | 72 | 1014.1 | |
| 20260507030025 | 34 | 0.0 | 0.0 | 0.00 | 0.00 | 0.00 | 70 | 1014.2 | |
| 20260507025523 | 34 | 0.0 | 0.0 | 0.00 | 0.00 | 0.00 | 71 | 1014.1 | |
| 20260507025021 | 34 | 0.0 | 0.0 | 0.00 | 0.00 | 0.00 | 70 | 1014.1 | |
| 20260507024519 | 34 | 0.0 | 0.0 | 0.00 | 0.00 | 0.00 | 70 | 1014.2 | |
| 20260507024016 | 35 | 0.0 | 0.0 | 0.00 | 0.00 | 0.00 | 70 | 1014.2 | |
| 20260507023554 | 35 | 0.0 | 0.0 | 0.00 | 0.00 | 0.00 | 70 | 1014.0 | |
| 20260507023032 | 35 | 0.0 | 0.0 | 0.00 | 0.00 | 0.00 | 69 | 1014.0 | |
| 20260507022530 | 35 | 0.0 | 0.0 | 0.00 | 0.00 | 0.00 | 68 | 1014.0 | |
| 20260507022028 | 36 | 0.0 | 0.0 | 0.00 | 0.00 | 0.00 | 68 | 1014.0 | |
| 20260507021546 | 36 | 0.0 | 0.0 | 0.00 | 0.00 | 0.00 | 67 | 1014.1 | |
| 20260507021024 | 37 | 0.0 | 0.0 | 0.00 | 0.00 | 0.00 | 65 | 1014.0 | |
| 20260507020522 | 37 | 0.0 | 0.0 | 0.00 | 0.00 | 0.00 | 66 | 1013.9 | |
| 20260507020020 | 37 | 0.0 | 0.0 | 0.00 | 0.00 | 0.00 | 64 | 1014.0 | |
| 20260507015517 | 38 | 0.0 | 0.0 | 0.00 | 0.00 | 0.00 | 62 | 1013.8 | |
| 20260507015035 | 38 | 0.0 | 0.0 | 0.00 | 0.00 | 0.00 | 60 | 1013.8 | |
| 20260507014533 | 39 | 0.0 | 0.0 | 0.00 | 0.00 | 0.00 | 59 | 1013.8 | |
| 20260507014031 | 39 | 0.0 | 0.0 | 0.00 | 0.00 | 0.00 | 58 | 1013.8 | |
| 20260507013529 | 40 | 0.0 | 0.0 | 0.00 | 0.00 | 0.00 | 58 | 1013.7 | |
| 20260507013026 | 40 | 0.0 | 0.0 | 0.00 | 0.00 | 0.00 | 56 | 1013.7 | |
| 20260507012525 | 41 | 0.0 | 0.0 | 0.00 | 0.00 | 0.00 | 55 | 1013.7 | |
| 20260507012022 | 41 | 0.0 | 0.0 | 0.00 | 0.00 | 0.00 | 55 | 1013.6 | |
| 20260507011521 | 42 | 0.0 | 0.0 | 0.00 | 0.00 | 0.00 | 53 | 1013.6 | |
| 20260507011039 | 42 | 0.0 | 0.0 | 0.00 | 0.00 | 0.00 | 52 | 1013.6 | |
| 20260507010515 | 42 | 0.0 | 0.0 | 0.00 | 0.00 | 0.00 | 51 | 1013.6 | |
| 20260507010053 | 43 | 0.0 | 0.0 | 0.00 | 0.00 | 0.00 | 51 | 1013.6 | |
| 20260507005532 | 43 | 0.0 | 0.0 | 0.00 | 0.00 | 0.00 | 50 | 1013.7 | |
| 20260507005029 | 43 | 0.0 | 0.0 | 0.00 | 0.00 | 0.00 | 50 | 1013.7 | |
| 20260507004528 | 44 | 0.0 | 0.0 | 0.00 | 0.00 | 0.00 | 50 | 1013.7 | |
| 20260507004026 | 44 | 306 | 0.0 | 1.7 | 0.00 | 0.00 | 0.00 | 50 | 1013.7 |
| 20260507003524 | 44 | 306 | 0.0 | 1.7 | 0.00 | 0.00 | 0.00 | 50 | 1013.7 |
| 20260507003042 | 44 | 306 | 0.9 | 2.6 | 0.00 | 0.00 | 0.00 | 49 | 1013.9 |
| 20260507002520 | 45 | 294 | 0.9 | 5.2 | 0.00 | 0.00 | 0.00 | 49 | 1013.8 |
| 20260507002018 | 45 | 330 | 1.7 | 3.5 | 0.00 | 0.00 | 0.00 | 49 | 1013.7 |
| 20260507001516 | 45 | 309 | 0.9 | 2.6 | 0.00 | 0.00 | 0.00 | 49 | 1013.8 |
| 20260507001114 | 45 | 304 | 1.7 | 7.0 | 0.00 | 0.00 | 0.00 | 48 | 1013.8 |
| 20260507000552 | 45 | 299 | 1.7 | 6.1 | 0.00 | 0.00 | 0.00 | 48 | 1013.7 |
| 20260507000030 | 45 | 335 | 2.6 | 6.1 | 0.00 | 0.00 | 0.00 | 48 | 1013.7 |
| 20260506235528 | 45 | 299 | 2.6 | 9.6 | 0.00 | 0.00 | 0.00 | 48 | 1013.7 |
| 20260506235026 | 45 | 288 | 2.6 | 6.1 | 0.00 | 0.00 | 0.00 | 48 | 1013.7 |
| 20260506234545 | 45 | 308 | 1.7 | 5.2 | 0.00 | 0.00 | 0.00 | 49 | 1013.7 |
| 20260506234023 | 45 | 304 | 1.7 | 3.5 | 0.00 | 0.00 | 0.00 | 48 | 1013.6 |
| 20260506233521 | 45 | 307 | 2.6 | 7.8 | 0.00 | 0.00 | 0.00 | 48 | 1013.7 |
| 20260506233019 | 45 | 318 | 2.6 | 7.8 | 0.00 | 0.00 | 0.00 | 48 | 1013.7 |
| 20260506232536 | 45 | 298 | 1.7 | 5.2 | 0.00 | 0.00 | 0.00 | 48 | 1013.7 |
| 20260506232035 | 45 | 307 | 0.9 | 2.6 | 0.00 | 0.00 | 0.00 | 48 | 1013.9 |
| 20260506231533 | 45 | 311 | 1.7 | 8.7 | 0.00 | 0.00 | 0.00 | 48 | 1013.9 |
| 20260506231051 | 45 | 291 | 1.7 | 5.2 | 0.00 | 0.00 | 0.00 | 48 | 1013.8 |
| 20260506230529 | 45 | 288 | 1.7 | 5.2 | 0.00 | 0.00 | 0.00 | 48 | 1014.0 |
| 20260506230027 | 45 | 333 | 1.7 | 5.2 | 0.00 | 0.00 | 0.00 | 48 | 1013.9 |
| 20260506225525 | 45 | 297 | 2.6 | 7.8 | 0.00 | 0.00 | 0.00 | 47 | 1014.0 |
| 20260506225024 | 45 | 308 | 1.7 | 7.0 | 0.00 | 0.00 | 0.00 | 48 | 1014.1 |
| 20260506224522 | 46 | 323 | 2.6 | 6.1 | 0.00 | 0.00 | 0.00 | 49 | 1014.0 |
| 20260506224020 | 45 | 320 | 1.7 | 7.0 | 0.00 | 0.00 | 0.00 | 48 | 1014.0 |
| 20260506223518 | 45 | 306 | 1.7 | 6.1 | 0.00 | 0.00 | 0.00 | 48 | 1014.0 |
| 20260506223016 | 46 | 300 | 2.6 | 7.0 | 0.00 | 0.00 | 0.00 | 48 | 1014.0 |
| 20260506222534 | 46 | 313 | 2.6 | 7.8 | 0.00 | 0.00 | 0.00 | 48 | 1014.0 |
| 20260506222032 | 46 | 325 | 3.5 | 12.2 | 0.00 | 0.00 | 0.00 | 48 | 1014.0 |
| 20260506221530 | 46 | 303 | 2.6 | 11.3 | 0.00 | 0.00 | 0.00 | 48 | 1014.0 |
| 20260506221048 | 46 | 312 | 2.6 | 6.1 | 0.00 | 0.00 | 0.00 | 47 | 1014.0 |
| 20260506220527 | 46 | 313 | 3.5 | 9.6 | 0.00 | 0.00 | 0.00 | 47 | 1013.9 |
| 20260506220045 | 46 | 293 | 2.6 | 7.8 | 0.00 | 0.00 | 0.00 | 48 | 1014.0 |
| 20260506215523 | 45 | 313 | 1.7 | 5.2 | 0.00 | 0.00 | 0.00 | 47 | 1013.9 |
| 20260506215042 | 45 | 320 | 3.5 | 9.6 | 0.00 | 0.00 | 0.00 | 47 | 1014.0 |
| 20260506214520 | 45 | 288 | 2.6 | 7.8 | 0.00 | 0.00 | 0.00 | 47 | 1014.0 |
| 20260506214017 | 45 | 298 | 1.7 | 3.5 | 0.00 | 0.00 | 0.00 | 47 | 1014.0 |
| 20260506213535 | 45 | 263 | 2.6 | 7.8 | 0.00 | 0.00 | 0.00 | 48 | 1014.0 |
| 20260506213114 | 45 | 308 | 1.7 | 6.1 | 0.00 | 0.00 | 0.00 | 47 | 1014.2 |
| 20260506212532 | 45 | 312 | 1.7 | 5.2 | 0.00 | 0.00 | 0.00 | 48 | 1014.0 |
| 20260506212030 | 45 | 326 | 2.6 | 5.2 | 0.00 | 0.00 | 0.00 | 47 | 1014.1 |
| 20260506211528 | 45 | 296 | 1.7 | 7.0 | 0.00 | 0.00 | 0.00 | 47 | 1014.1 |
| 20260506211046 | 46 | 314 | 3.5 | 9.6 | 0.00 | 0.00 | 0.00 | 48 | 1014.0 |
| 20260506210524 | 46 | 319 | 2.6 | 7.0 | 0.00 | 0.00 | 0.00 | 49 | 1014.1 |
| 20260506210023 | 45 | 312 | 2.6 | 7.0 | 0.00 | 0.00 | 0.00 | 49 | 1014.1 |
| 20260506205521 | 45 | 324 | 1.7 | 5.2 | 0.00 | 0.00 | 0.00 | 48 | 1014.2 |
| 20260506205019 | 45 | 311 | 2.6 | 6.1 | 0.00 | 0.00 | 0.00 | 48 | 1014.2 |
| 20260506204517 | 45 | 327 | 1.7 | 6.1 | 0.00 | 0.00 | 0.00 | 47 | 1014.4 |
| 20260506204034 | 45 | 316 | 2.6 | 8.7 | 0.00 | 0.00 | 0.00 | 48 | 1014.3 |
| 20260506203533 | 45 | 294 | 2.6 | 9.6 | 0.00 | 0.00 | 0.00 | 48 | 1014.4 |
| 20260506203031 | 45 | 319 | 3.5 | 7.8 | 0.00 | 0.00 | 0.00 | 49 | 1014.5 |
| 20260506202529 | 45 | 308 | 2.6 | 8.7 | 0.00 | 0.00 | 0.00 | 49 | 1014.4 |
| 20260506202027 | 45 | 321 | 2.6 | 8.7 | 0.00 | 0.00 | 0.00 | 49 | 1014.5 |
| 20260506201525 | 45 | 295 | 1.7 | 3.5 | 0.00 | 0.00 | 0.00 | 49 | 1014.5 |
| 20260506201023 | 45 | 263 | 1.7 | 5.2 | 0.00 | 0.00 | 0.00 | 48 | 1014.5 |
| 20260506200522 | 45 | 302 | 2.6 | 7.8 | 0.00 | 0.00 | 0.00 | 48 | 1014.6 |
| 20260506200020 | 45 | 322 | 2.6 | 7.0 | 0.00 | 0.00 | 0.00 | 49 | 1014.5 |
| 20260506195518 | 45 | 301 | 2.6 | 7.0 | 0.00 | 0.00 | 0.00 | 48 | 1014.5 |
| 20260506195035 | 45 | 297 | 2.6 | 9.6 | 0.00 | 0.00 | 0.00 | 48 | 1014.4 |
| 20260506194533 | 45 | 285 | 1.7 | 7.0 | 0.00 | 0.00 | 0.00 | 48 | 1014.5 |
| 20260506194032 | 45 | 281 | 1.7 | 6.1 | 0.00 | 0.00 | 0.00 | 48 | 1014.6 |
| 20260506193530 | 45 | 326 | 1.7 | 5.2 | 0.00 | 0.00 | 0.00 | 48 | 1014.3 |
| 20260506193028 | 45 | 344 | 2.6 | 8.7 | 0.00 | 0.00 | 0.00 | 48 | 1014.6 |
| 20260506192526 | 45 | 312 | 4.3 | 9.6 | 0.00 | 0.00 | 0.00 | 48 | 1014.4 |
| 20260506192024 | 45 | 328 | 2.6 | 7.8 | 0.00 | 0.00 | 0.00 | 48 | 1014.4 |
| 20260506191523 | 45 | 320 | 2.6 | 7.0 | 0.00 | 0.00 | 0.00 | 48 | 1014.3 |
| 20260506191041 | 45 | 316 | 2.6 | 8.7 | 0.00 | 0.00 | 0.00 | 48 | 1014.3 |
| 20260506190520 | 46 | 279 | 1.7 | 6.1 | 0.00 | 0.00 | 0.00 | 47 | 1014.3 |
| 20260506190018 | 46 | 312 | 3.5 | 13.0 | 0.00 | 0.00 | 0.00 | 46 | 1014.2 |
| 20260506185535 | 46 | 330 | 3.5 | 11.3 | 0.00 | 0.00 | 0.00 | 48 | 1014.3 |
| 20260506185033 | 45 | 317 | 2.6 | 7.0 | 0.00 | 0.00 | 0.00 | 49 | 1014.2 |
| 20260506184531 | 45 | 316 | 2.6 | 6.1 | 0.00 | 0.00 | 0.00 | 48 | 1014.3 |
| 20260506184029 | 45 | 314 | 2.6 | 7.0 | 0.00 | 0.00 | 0.00 | 48 | 1014.2 |
| 20260506183528 | 45 | 315 | 2.6 | 7.0 | 0.00 | 0.00 | 0.00 | 48 | 1014.2 |
| 20260506183026 | 45 | 325 | 2.6 | 6.1 | 0.00 | 0.00 | 0.00 | 49 | 1014.2 |
| 20260506182524 | 45 | 321 | 2.6 | 7.0 | 0.00 | 0.00 | 0.00 | 48 | 1014.0 |
| 20260506182022 | 45 | 324 | 2.6 | 7.8 | 0.00 | 0.00 | 0.00 | 48 | 1014.0 |
| 20260506181521 | 45 | 318 | 2.6 | 5.2 | 0.00 | 0.00 | 0.00 | 48 | 1014.1 |
| 20260506181019 | 45 | 309 | 2.6 | 7.0 | 0.00 | 0.00 | 0.00 | 48 | 1014.1 |
| 20260506180517 | 46 | 329 | 2.6 | 7.0 | 0.00 | 0.00 | 0.00 | 47 | 1014.1 |
| 20260506180034 | 46 | 324 | 1.7 | 7.0 | 0.00 | 0.00 | 0.00 | 48 | 1014.2 |
| 20260506175533 | 46 | 300 | 2.6 | 9.6 | 0.00 | 0.00 | 0.00 | 48 | 1014.0 |
| 20260506175031 | 46 | 329 | 1.7 | 5.2 | 0.00 | 0.00 | 0.00 | 48 | 1014.1 |
| 20260506174529 | 46 | 321 | 2.6 | 6.1 | 0.00 | 0.00 | 0.00 | 47 | 1014.2 |
| 20260506174027 | 46 | 278 | 2.6 | 6.1 | 0.00 | 0.00 | 0.00 | 47 | 1014.1 |
| 20260506173525 | 46 | 287 | 1.7 | 7.8 | 0.00 | 0.00 | 0.00 | 48 | 1014.1 |
| 20260506173024 | 46 | 309 | 2.6 | 7.8 | 0.00 | 0.00 | 0.00 | 48 | 1014.2 |
| 20260506172522 | 46 | 280 | 0.9 | 3.5 | 0.00 | 0.00 | 0.00 | 49 | 1014.2 |
| 20260506172020 | 46 | 326 | 2.6 | 6.1 | 0.00 | 0.00 | 0.00 | 48 | 1014.1 |
| 20260506171519 | 46 | 325 | 2.6 | 7.8 | 0.00 | 0.00 | 0.00 | 48 | 1014.2 |
| 20260506171017 | 46 | 317 | 2.6 | 7.8 | 0.00 | 0.00 | 0.00 | 48 | 1014.3 |
| 20260506170554 | 46 | 292 | 2.6 | 7.0 | 0.00 | 0.00 | 0.00 | 49 | 1014.3 |
| 20260506170052 | 46 | 282 | 2.6 | 7.0 | 0.00 | 0.00 | 0.00 | 48 | 1014.3 |
| 20260506165530 | 46 | 343 | 1.7 | 6.1 | 0.00 | 0.00 | 0.00 | 49 | 1014.0 |
| 20260506165029 | 47 | 321 | 1.7 | 3.5 | 0.00 | 0.00 | 0.00 | 49 | 1014.2 |
| 20260506164527 | 46 | 313 | 2.6 | 6.1 | 0.00 | 0.00 | 0.00 | 50 | 1014.1 |
| 20260506164025 | 46 | 312 | 2.6 | 8.7 | 0.00 | 0.00 | 0.00 | 51 | 1014.2 |
| 20260506163523 | 45 | 315 | 1.7 | 3.5 | 0.00 | 0.00 | 0.00 | 50 | 1014.2 |
| 20260506163021 | 45 | 324 | 2.6 | 9.6 | 0.00 | 0.00 | 0.00 | 52 | 1014.2 |
| 20260506162520 | 45 | 283 | 1.7 | 8.7 | 0.00 | 0.00 | 0.00 | 52 | 1014.3 |
| 20260506162018 | 45 | 299 | 0.9 | 2.6 | 0.00 | 0.00 | 0.00 | 52 | 1014.4 |
| 20260506161616 | 45 | 304 | 1.7 | 6.1 | 0.00 | 0.00 | 0.00 | 51 | 1014.3 |
| 20260506161033 | 45 | 281 | 0.9 | 5.2 | 0.00 | 0.00 | 0.00 | 51 | 1014.3 |
| 20260506160612 | 45 | 320 | 1.7 | 5.2 | 0.00 | 0.00 | 0.00 | 51 | 1014.4 |
| 20260506160030 | 45 | 314 | 2.6 | 7.8 | 0.00 | 0.00 | 0.00 | 50 | 1014.5 |
| 20260506155528 | 45 | 287 | 3.5 | 7.8 | 0.00 | 0.00 | 0.00 | 51 | 1014.3 |
| 20260506155026 | 45 | 321 | 3.5 | 12.2 | 0.00 | 0.00 | 0.00 | 51 | 1014.2 |
| 20260506154524 | 45 | 292 | 2.6 | 9.6 | 0.00 | 0.00 | 0.00 | 52 | 1014.0 |
| 20260506154022 | 45 | 298 | 1.7 | 5.2 | 0.00 | 0.00 | 0.00 | 52 | 1014.2 |
| 20260506153521 | 45 | 305 | 2.6 | 9.6 | 0.00 | 0.00 | 0.00 | 52 | 1014.0 |
| 20260506153019 | 45 | 312 | 1.7 | 6.1 | 0.00 | 0.00 | 0.00 | 52 | 1014.1 |
| 20260506152517 | 45 | 308 | 3.5 | 11.3 | 0.00 | 0.00 | 0.00 | 53 | 1014.0 |
| 20260506152034 | 45 | 325 | 2.6 | 8.7 | 0.00 | 0.00 | 0.00 | 55 | 1014.1 |
| 20260506151532 | 44 | 315 | 1.7 | 8.7 | 0.00 | 0.00 | 0.00 | 56 | 1014.3 |
| 20260506151030 | 43 | 313 | 1.7 | 3.5 | 0.00 | 0.00 | 0.00 | 55 | 1014.3 |
| 20260506150528 | 43 | 313 | 1.7 | 3.5 | 0.00 | 0.00 | 0.00 | 55 | 1014.5 |
| 20260506150027 | 43 | 260 | 2.6 | 8.7 | 0.00 | 0.00 | 0.00 | 54 | 1014.5 |
| 20260506145525 | 43 | 315 | 2.6 | 8.7 | 0.00 | 0.00 | 0.00 | 54 | 1014.6 |
| 20260506145023 | 43 | 310 | 2.6 | 7.0 | 0.00 | 0.00 | 0.00 | 55 | 1014.5 |
| 20260506144522 | 43 | 320 | 2.6 | 7.8 | 0.00 | 0.00 | 0.00 | 55 | 1014.5 |
| 20260506144020 | 43 | 289 | 3.5 | 11.3 | 0.00 | 0.00 | 0.00 | 55 | 1014.5 |
| 20260506143518 | 43 | 319 | 1.7 | 6.1 | 0.00 | 0.00 | 0.00 | 55 | 1014.4 |
| 20260506143015 | 43 | 345 | 1.7 | 3.5 | 0.00 | 0.00 | 0.00 | 55 | 1014.4 |
| 20260506142533 | 43 | 325 | 3.5 | 12.2 | 0.00 | 0.00 | 0.00 | 55 | 1014.4 |
| 20260506142032 | 43 | 301 | 4.3 | 13.9 | 0.00 | 0.00 | 0.00 | 53 | 1014.2 |
| 20260506141530 | 43 | 316 | 4.3 | 15.6 | 0.00 | 0.00 | 0.00 | 54 | 1014.2 |
| 20260506141048 | 43 | 319 | 2.6 | 9.6 | 0.00 | 0.00 | 0.00 | 56 | 1014.1 |
| 20260506140546 | 43 | 327 | 1.7 | 5.2 | 0.00 | 0.00 | 0.00 | 57 | 1014.1 |
| 20260506140024 | 43 | 327 | 2.6 | 7.0 | 0.00 | 0.00 | 0.00 | 57 | 1013.9 |
| 20260506135523 | 43 | 321 | 1.7 | 7.0 | 0.00 | 0.00 | 0.00 | 57 | 1013.8 |
| 20260506135021 | 43 | 328 | 2.6 | 7.0 | 0.00 | 0.00 | 0.00 | 59 | 1013.7 |
| 20260506134520 | 42 | 331 | 2.6 | 7.8 | 0.00 | 0.00 | 0.00 | 59 | 1013.7 |
| 20260506134037 | 42 | 327 | 2.6 | 8.7 | 0.00 | 0.00 | 0.00 | 61 | 1013.7 |
| 20260506133534 | 42 | 331 | 0.9 | 3.5 | 0.00 | 0.00 | 0.00 | 64 | 1013.7 |
| 20260506133113 | 41 | 337 | 0.9 | 2.6 | 0.00 | 0.00 | 0.00 | 65 | 1013.7 |
| 20260506132531 | 40 | 303 | 0.9 | 3.5 | 0.00 | 0.00 | 0.00 | 68 | 1013.6 |
| 20260506132109 | 40 | 354 | 0.9 | 1.7 | 0.00 | 0.00 | 0.00 | 70 | 1013.7 |
| 20260506131527 | 39 | 326 | 0.9 | 1.7 | 0.00 | 0.00 | 0.00 | 71 | 1013.8 |
| 20260506131025 | 38 | 333 | 0.9 | 5.2 | 0.00 | 0.00 | 0.00 | 72 | 1013.8 |
| 20260506130544 | 37 | 303 | 0.9 | 3.5 | 0.00 | 0.00 | 0.00 | 74 | 1013.7 |
| 20260506130022 | 36 | 303 | 0.0 | 1.7 | 0.00 | 0.00 | 0.00 | 75 | 1013.5 |
| 20260506125520 | 35 | 298 | 0.9 | 3.5 | 0.00 | 0.00 | 0.00 | 77 | 1013.4 |
| 20260506125018 | 34 | 306 | 0.9 | 2.6 | 0.00 | 0.00 | 0.00 | 78 | 1013.3 |
| 20260506124515 | 33 | 306 | 0.9 | 2.6 | 0.00 | 0.00 | 0.00 | 79 | 1013.3 |
| 20260506124033 | 32 | 0.0 | 0.0 | 0.00 | 0.00 | 0.00 | 80 | 1013.3 | |
| 20260506123532 | 32 | 0.0 | 0.0 | 0.00 | 0.00 | 0.00 | 80 | 1013.4 | |
| 20260506123030 | 32 | 0.0 | 0.0 | 0.00 | 0.00 | 0.00 | 81 | 1013.3 | |
| 20260506122528 | 32 | 0.0 | 0.0 | 0.00 | 0.00 | 0.00 | 81 | 1013.3 | |
| 20260506122107 | 31 | 0.0 | 0.0 | 0.00 | 0.00 | 0.00 | 81 | 1013.1 | |
| 20260506121525 | 31 | 0.0 | 0.0 | 0.00 | 0.00 | 0.00 | 81 | 1013.0 | |
| 20260506121144 | 31 | 0.0 | 0.0 | 0.00 | 0.00 | 0.00 | 82 | 1013.0 | |
| 20260506120521 | 30 | 0.0 | 0.0 | 0.00 | 0.00 | 0.00 | 82 | 1013.0 | |
| 20260506120020 | 30 | 0.0 | 0.0 | 0.00 | 0.00 | 0.00 | 82 | 1012.8 | |
| 20260506115518 | 30 | 0.0 | 0.0 | 0.00 | 0.00 | 0.00 | 82 | 1012.7 | |
| 20260506115035 | 30 | 0.0 | 0.0 | 0.00 | 0.00 | 0.00 | 81 | 1012.8 | |
| 20260506114533 | 30 | 0.0 | 0.0 | 0.00 | 0.00 | 0.00 | 81 | 1012.9 | |
| 20260506114031 | 30 | 0.0 | 0.0 | 0.00 | 0.00 | 0.00 | 81 | 1013.0 | |
| 20260506113529 | 30 | 0.0 | 0.0 | 0.00 | 0.00 | 0.00 | 81 | 1012.9 | |
| 20260506113028 | 30 | 0.0 | 0.0 | 0.00 | 0.00 | 0.00 | 81 | 1012.9 | |
| 20260506112526 | 31 | 0.0 | 0.0 | 0.00 | 0.00 | 0.00 | 81 | 1012.9 | |
| 20260506112024 | 31 | 0.0 | 0.0 | 0.00 | 0.00 | 0.00 | 81 | 1012.7 | |
| 20260506111522 | 31 | 0.0 | 0.0 | 0.00 | 0.00 | 0.00 | 81 | 1012.6 | |
| 20260506111021 | 31 | 0.0 | 0.0 | 0.00 | 0.00 | 0.00 | 80 | 1012.5 | |
| 20260506110519 | 32 | 0.0 | 0.0 | 0.00 | 0.00 | 0.00 | 80 | 1012.4 | |
| 20260506110037 | 32 | 0.0 | 0.0 | 0.00 | 0.00 | 0.00 | 80 | 1012.4 | |
| 20260506105614 | 31 | 0.0 | 0.0 | 0.00 | 0.00 | 0.00 | 80 | 1012.3 | |
| 20260506105032 | 31 | 0.0 | 0.0 | 0.00 | 0.00 | 0.00 | 80 | 1012.2 | |
| 20260506104531 | 31 | 0.0 | 0.0 | 0.00 | 0.00 | 0.00 | 80 | 1012.1 | |
| 20260506104029 | 31 | 0.0 | 0.0 | 0.00 | 0.00 | 0.00 | 79 | 1012.1 | |
| 20260506103547 | 31 | 0.0 | 0.0 | 0.00 | 0.00 | 0.00 | 79 | 1012.0 | |
| 20260506103025 | 31 | 0.0 | 0.0 | 0.00 | 0.00 | 0.00 | 79 | 1012.1 | |
| 20260506102524 | 31 | 0.0 | 0.0 | 0.00 | 0.00 | 0.00 | 79 | 1012.2 | |
| 20260506102022 | 31 | 0.0 | 0.0 | 0.00 | 0.00 | 0.00 | 79 | 1012.2 | |
| 20260506101521 | 31 | 0.0 | 0.0 | 0.00 | 0.00 | 0.00 | 79 | 1012.2 | |
| 20260506101019 | 32 | 0.0 | 0.0 | 0.00 | 0.00 | 0.00 | 79 | 1012.2 | |
| 20260506100516 | 32 | 0.0 | 0.0 | 0.00 | 0.00 | 0.00 | 78 | 1012.1 | |
| 20260506100034 | 32 | 0.0 | 0.0 | 0.00 | 0.00 | 0.00 | 79 | 1012.0 | |
| 20260506095532 | 32 | 0.0 | 0.0 | 0.00 | 0.00 | 0.00 | 79 | 1012.0 | |
| 20260506095031 | 32 | 0.0 | 0.0 | 0.00 | 0.00 | 0.00 | 80 | 1011.9 | |
| 20260506094529 | 32 | 0.0 | 0.0 | 0.00 | 0.00 | 0.00 | 79 | 1011.9 | |
| 20260506094027 | 32 | 0.0 | 0.0 | 0.00 | 0.00 | 0.00 | 79 | 1011.8 | |
| 20260506093525 | 32 | 0.0 | 0.0 | 0.00 | 0.00 | 0.00 | 78 | 1011.7 | |
| 20260506093023 | 32 | 0.0 | 0.0 | 0.00 | 0.00 | 0.00 | 78 | 1011.6 | |
| 20260506092522 | 32 | 0.0 | 0.0 | 0.00 | 0.00 | 0.00 | 78 | 1011.5 | |
| 20260506092020 | 32 | 0.0 | 0.0 | 0.00 | 0.00 | 0.00 | 78 | 1011.5 | |
| 20260506091518 | 32 | 0.0 | 0.0 | 0.00 | 0.00 | 0.00 | 79 | 1011.7 | |
| 20260506091015 | 32 | 0.0 | 0.0 | 0.00 | 0.00 | 0.00 | 79 | 1011.6 | |
| 20260506090534 | 32 | 0.0 | 0.0 | 0.00 | 0.00 | 0.00 | 79 | 1011.5 | |
| 20260506090032 | 32 | 0.0 | 0.0 | 0.00 | 0.00 | 0.00 | 78 | 1011.5 | |
| 20260506085530 | 32 | 0.0 | 0.0 | 0.00 | 0.00 | 0.00 | 78 | 1011.5 | |
| 20260506085028 | 33 | 0.0 | 0.0 | 0.00 | 0.00 | 0.00 | 77 | 1011.4 | |
| 20260506084527 | 33 | 0.0 | 0.0 | 0.00 | 0.00 | 0.00 | 77 | 1011.4 | |
| 20260506084025 | 33 | 0.0 | 0.0 | 0.00 | 0.00 | 0.00 | 77 | 1011.2 | |
| 20260506083523 | 33 | 0.0 | 0.0 | 0.00 | 0.00 | 0.00 | 76 | 1011.2 | |
| 20260506083021 | 33 | 0.0 | 0.0 | 0.00 | 0.00 | 0.00 | 76 | 1011.1 | |
| 20260506082520 | 33 | 0.0 | 0.0 | 0.00 | 0.00 | 0.00 | 76 | 1011.1 | |
| 20260506082018 | 33 | 0.0 | 0.0 | 0.00 | 0.00 | 0.00 | 75 | 1011.2 | |
| 20260506081535 | 34 | 0.0 | 0.0 | 0.00 | 0.00 | 0.00 | 76 | 1011.2 | |
| 20260506081033 | 34 | 0.0 | 0.0 | 0.00 | 0.00 | 0.00 | 75 | 1011.3 | |
| 20260506080531 | 34 | 0.0 | 0.0 | 0.00 | 0.00 | 0.00 | 75 | 1011.2 | |
| 20260506073019 | 34 | 0.0 | 0.0 | 0.00 | 0.00 | 0.00 | 73 | 1011.1 | |
| 20260506072517 | 34 | 0.0 | 0.0 | 0.00 | 0.00 | 0.00 | 73 | 1010.9 | |
| 20260506072034 | 34 | 0.0 | 0.0 | 0.00 | 0.00 | 0.00 | 74 | 1010.9 | |
| 20260506071533 | 34 | 0.0 | 0.0 | 0.00 | 0.00 | 0.00 | 74 | 1010.7 | |
| 20260506071031 | 35 | 0.0 | 0.0 | 0.00 | 0.00 | 0.00 | 74 | 1010.6 | |
| 20260506070529 | 35 | 0.0 | 0.0 | 0.00 | 0.00 | 0.00 | 74 | 1010.6 | |
| 20260506062032 | 35 | 0.0 | 0.0 | 0.00 | 0.00 | 0.00 | 74 | 1010.3 | |
| 20260506061530 | 35 | 0.0 | 0.0 | 0.00 | 0.00 | 0.00 | 75 | 1010.4 | |
| 20260506061028 | 35 | 0.0 | 0.0 | 0.00 | 0.00 | 0.00 | 74 | 1010.5 | |
| 20260506060527 | 36 | 0.0 | 0.0 | 0.00 | 0.00 | 0.00 | 73 | 1010.4 | |
| 20260506051026 | 37 | 0.0 | 0.0 | 0.00 | 0.00 | 0.00 | 72 | 1010.1 | |
| 20260506050524 | 37 | 0.0 | 0.0 | 0.00 | 0.00 | 0.00 | 72 | 1010.1 | |
| 20260506045040 | 38 | 0.0 | 0.0 | 0.00 | 0.00 | 0.00 | 69 | 1009.9 | |
| 20260506044517 | 38 | 300 | 0.0 | 1.7 | 0.00 | 0.00 | 0.00 | 70 | 1009.9 |
| 20260506044034 | 38 | 0.0 | 0.0 | 0.00 | 0.00 | 0.00 | 70 | 1009.9 | |
| 20260506043532 | 38 | 0.0 | 0.0 | 0.00 | 0.00 | 0.00 | 69 | 1009.9 | |
| 20260506043031 | 38 | 0.0 | 0.0 | 0.00 | 0.00 | 0.00 | 68 | 1010.0 | |
| 20260506042529 | 38 | 0.0 | 0.0 | 0.00 | 0.00 | 0.00 | 69 | 1009.9 | |
| 20260506042027 | 39 | 299 | 0.0 | 0.9 | 0.00 | 0.00 | 0.00 | 69 | 1009.9 |
| 20260506041525 | 39 | 0.0 | 0.0 | 0.00 | 0.00 | 0.00 | 69 | 1009.9 | |
| 20260506041104 | 39 | 0.0 | 0.0 | 0.00 | 0.00 | 0.00 | 67 | 1009.8 | |
| 20260506040522 | 40 | 0.0 | 0.0 | 0.00 | 0.00 | 0.00 | 66 | 1009.9 | |
| 20260506040020 | 40 | 0.0 | 0.0 | 0.00 | 0.00 | 0.00 | 67 | 1009.9 | |
| 20260506035519 | 40 | 300 | 0.0 | 0.9 | 0.00 | 0.00 | 0.00 | 66 | 1009.9 |
| 20260506035016 | 41 | 299 | 0.0 | 1.7 | 0.00 | 0.00 | 0.00 | 66 | 1009.9 |
| 20260506034554 | 41 | 0.0 | 0.0 | 0.00 | 0.00 | 0.00 | 65 | 1009.8 |